Tracking 32412 objects as of 6-Dec-2025
HD Live streaming from Space Station
objects crossing your sky now

RADUGA 20

Track RADUGA 20 now!
RADUGA 20 is classified as:


NORAD ID: 17611
Int'l Code: 1987-028A
Perigee: 36,928.9 km
Apogee: 37,165.3 km
Inclination: 13.6 °
Period: 1,500.6 minutes
Semi major axis: 43418 km
RCS: 2.0634 m2 (large)
Launch date: March 19, 1987
Source: Commonwealth of Independent States (former USSR) (CIS)
Launch site: TYURATAM MISSILE AND SPACE COMPLEX (TTMTR)
Your satellite tracking list
Your tracking list is empty




NASA's NSSDC Master Catalog

Two Line Element Set (TLE):
1 17611U 87028A   25339.84692634 -.00000130  00000-0  00000-0 0  9990
2 17611  13.5685 329.6906 0027221 173.3848 191.3908  0.95961376136466
Source of the keplerian elements: AFSPC